Location: Newark
(31.5350°N, 35.0986°E)
Time: 06:16:30
(UTC+00:00)

Vanguard 1 - Pass Details

Date: 26 September 2019
Orbit: 653 x 3830 km, 34.2° (Epoch: 18 October)

Event Time Altitude Azimuth Distance (km) Brightness Sun altitude
Rises 04:42:17 0° 290° (WNW) 7,667 14.0 14.5°
Reaches altitude 10° 04:48:10 10° 287° (WNW) 6,319 13.6 15.7°
Maximum altitude 05:05:24 51° 219° (SW) 2,698 12.4 19.3°
Drops below altitude 10° 05:15:04 10° 146° (SE) 3,677 13.9 21.3°
Sets 05:17:33 0° 140° (SE) 4,349 14.3 21.8°
